[[{"header":{"parameterUnit":"m.s-1","parameterCategory":1,"la1":30.2991,"la2":30.254,"lo1":-89.0895,"lo2":-89.0444,"dy":0.0017,"dx":0.0017,"nx":28,"ny":28,"refTime":"2023-09-09T21:00:00:Z","depth":0,"parameterNumber":2,"parameterNumberName":"U-component_of_WINDS"},"data":[0,0,0,0,0,0,0,0,0,0,0,0,0,0,0,0,0,0,0,0,0,0,0,0,0,0,0,0,0,0,0,0,0,0,0,0,0,0,0,0,0,0,0,0,0,0,0,0,0,0,0,0,0,0,0,0,0,0,1.0533,1.0534,0,1.0624,1.0625,1.0626,1.0646,1.0645,1.0644,1.0644,1.0741,1.0744,1.0747,0,0,0,0,0,0,0,0,0,0,0,0,0,1.0377,1.0379,1.0533,1.0534,1.0535,1.0624,1.0625,1.0627,1.0646,1.0645,1.0644,1.0643,1.074,1.0744,1.0748,0,0,0,0,0,0,0,0,0,0,0,0,0,1.0454,1.038,1.0532,1.0555,1.0558,1.0624,1.0625,1.0627,1.0646,1.0645,1.0644,1.0643,1.0739,1.0743,1.0748,1.0799,0,0,1.0763,1.0765,0,0,0,0,0,0,0,0,1.045,1.046,1.0551,1.0554,1.0557,1.0622,1.0606,1.0685,1.0646,1.0613,1.0644,1.0642,1.0703,1.071,1.073,1.0803,1.0808,1.0763,1.0766,1.0769,1.077,0,0,0,0,0,0,0,1.0444,1.0456,1.0569,1.0552,1.0556,1.0562,1.0571,1.0621,1.0663,1.0616,1.0617,1.0628,1.0704,1.0725,1.0732,1.0809,1.0763,1.0768,1.0771,1.0773,1.0928,1.0929,0,0,0,0,0,0,1.0434,1.0451,1.0566,1.0572,1.05,1.0565,1.0576,1.0603,1.0662,1.067,1.0628,1.0628,1.0717,1.0727,1.0736,1.0798,1.0768,1.0773,1.0776,1.0927,1.0928,1.0929,0,0,0,0,0,0,1.0431,1.0445,1.0562,1.0512,1.0527,1.0569,1.0598,1.0605,1.0626,1.0672,1.0679,1.0642,1.0717,1.0729,1.0783,1.0802,1.0775,1.078,1.0925,1.0927,1.0929,1.0924,0,0,0,0,0,0,1.0427,1.0443,1.0462,1.0512,1.053,1.0607,1.06,1.0607,1.0634,1.0634,1.0687,1.0694,1.0717,1.0775,1.0787,1.0808,1.0783,1.0924,1.0926,1.0928,1.0923,1.0926,1.0928,0,0,0,0,0,1.0421,1.0459,1.0463,1.0477,1.0555,1.0608,1.0618,1.0643,1.0635,1.0655,1.0684,1.0693,1.0798,1.0781,1.0794,1.0817,1.0922,1.0925,1.0928,1.0922,1.0925,1.0928,0,0,0,0,0,0,1.0411,1.0466,1.0471,1.0526,1.0562,1.0611,1.0637,1.0646,1.0686,1.0685,1.0715,1.0726,1.0778,1.0803,1.0783,1.0869,1.086,1.0866,1.085,1.0854,1.0857,1.085,1.0787,0,0,0,0,0,1.0415,1.0453,1.0499,1.0543,1.056,1.0595,1.062,1.0635,1.0674,1.069,1.0723,1.0761,1.0803,1.083,1.0871,1.0926,1.0938,1.0949,1.0951,1.0953,1.0958,1.0988,1.0994,1.0938,1.0938,1.0938,0,0,1.0425,1.0459,1.0481,1.0542,1.0571,1.061,1.0608,1.065,1.0679,1.0697,1.0749,1.0774,1.0819,1.0873,1.0899,1.0896,1.0976,1.0957,1.0958,1.0962,1.0992,1.0997,1.1001,1.094,1.094,1.0939,0,0,1.0461,1.0491,1.053,1.0559,1.0604,1.0627,1.0636,1.0684,1.0701,1.0753,1.0767,1.0802,1.0874,1.0905,1.093,1.0976,1.0985,1.0989,1.1003,1.1032,1.1037,1.1041,1.1057,1.1062,1.0993,1.0993,1.0993,0,1.0467,1.0526,1.055,1.059,1.0616,1.0632,1.0672,1.07,1.0756,1.0774,1.0769,1.0858,1.089,1.0951,1.0962,1.0982,1.0994,1.0983,1.1034,1.1038,1.1042,1.1058,1.1064,1.0994,1.0994,1.0994,1.0994,0,1.0531,1.0571,1.0598,1.0649,1.0679,1.0719,1.0749,1.0776,1.0789,1.0812,1.0865,1.0903,1.0951,1.0967,1.0981,1.103,1.1027,1.1028,1.1019,1.1047,1.1062,1.1069,1.0994,1.0994,1.0994,1.0994,0,0,1.0565,1.0628,1.0638,1.0661,1.071,1.0743,1.0783,1.0829,1.0851,1.0889,1.0924,1.0983,1.0984,1.1012,1.103,1.1055,1.1089,1.1053,1.1054,1.1058,1.1145,1.1144,1.1151,1.1095,1.1096,1.1097,1.1141,0,1.0607,1.0679,1.0702,1.0762,1.08,1.0815,1.085,1.0885,1.0908,1.0943,1.0969,1.101,1.1008,1.1025,1.1051,1.1079,1.1107,1.1076,1.1128,1.113,1.1116,1.1159,1.1158,1.1198,1.1147,1.1148,1.1149,0,1.0666,1.0703,1.0767,1.0811,1.0828,1.0859,1.0902,1.0936,1.0975,1.099,1.1021,1.1036,1.1079,1.1068,1.1128,1.1107,1.1129,1.1146,1.1149,1.1155,1.1141,1.1166,1.1211,1.1217,1.1159,1.1158,1.1158,0,1.0684,1.075,1.0797,1.0816,1.0869,1.089,1.0913,1.0952,1.0977,1.1016,1.1033,1.1076,1.1099,1.1133,1.1158,1.1148,1.1216,1.1208,1.123,1.1229,1.1244,1.1243,1.1294,1.1259,1.1259,1.1258,1.1258,0,1.0729,1.0767,1.0805,1.0834,1.0878,1.0903,1.0945,1.0969,1.1003,1.1037,1.1053,1.1085,1.1117,1.1153,1.1173,1.122,1.1231,1.1244,1.1249,1.1242,1.1241,1.1258,1.1256,1.126,1.126,1.1259,1.1259,0,1.0756,1.0783,1.0835,1.0879,1.0892,1.0922,1.096,1.0989,1.1012,1.1054,1.1066,1.1102,1.1145,1.1174,1.1229,1.1243,1.1293,1.1298,1.128,1.1282,1.1303,1.13,1.1367,1.1376,1.1335,1.1335,1.1335,0,1.0783,1.0813,1.086,1.0883,1.0906,1.0943,1.0969,1.0995,1.1022,1.1068,1.1091,1.1134,1.1171,1.1239,1.1271,1.1313,1.1319,1.1339,1.1325,1.1317,1.1318,1.1316,1.1319,1.1341,1.1341,1.1342,1.1342,0,1.0827,1.0839,1.0875,1.0916,1.0946,1.0979,1.1013,1.1032,1.1063,1.1092,1.1136,1.1164,1.1219,1.1262,1.1307,1.1332,1.1342,1.1346,1.1353,1.1347,1.1334,1.1341,1.1285,1.1344,1.1344,1.1344,1.1344,1.1344,1.0855,1.0882,1.0919,1.0959,1.0986,1.1017,1.1046,1.1071,1.1108,1.1154,1.1167,1.1212,1.125,1.1312,1.1336,1.1372,1.1371,1.1381,1.1384,1.1386,1.1386,1.1328,1.1381,1.1381,1.1381,1.1381,1.1381,0,1.09,1.0924,1.096,1.1006,1.1037,1.1043,1.108,1.1106,1.1145,1.1179,1.1214,1.1263,1.1305,1.1339,1.1382,1.1404,1.141,1.1415,1.1413,1.1419,1.1386,1.1375,1.1409,1.1409,1.1409,1.1409,1.1409,1.1409,1.0927,1.0972,1.0988,1.1047,1.1071,1.1115,1.1135,1.1164,1.1191,1.1245,1.1279,1.1301,1.1335,1.138,1.1418,1.1427,1.1442,1.1446,1.1456,1.1424,1.1421,1.1418,1.1408,1.1449,1.1449,1.1486,1.1486,1.1486]},{"header":{"parameterUnit":"m.s-1","parameterCategory":1,"la1":30.2991,"la2":30.254,"lo1":-89.0895,"lo2":-89.0444,"dy":0.0017,"dx":0.0017,"nx":28,"ny":28,"refTime":"2023-09-09T21:00:00:Z","depth":0,"parameterNumber":3,"parameterNumberName":"V-component_of_WINDS"},"data":[0,0,0,0,0,0,0,0,0,0,0,0,0,0,0,0,0,0,0,0,0,0,0,0,0,0,0,0,0,0,0,0,0,0,0,0,0,0,0,0,0,0,0,0,0,0,0,0,0,0,0,0,0,0,0,0,0,0,2.0081,2.0081,0,2.0108,2.0109,2.0109,2.0046,2.0044,2.0042,2.004,2.0068,2.0071,2.0073,0,0,0,0,0,0,0,0,0,0,0,0,0,1.997,1.9972,2.0081,2.0081,2.0081,2.0108,2.0109,2.0109,2.0046,2.0044,2.0042,2.0039,2.0067,2.007,2.0073,0,0,0,0,0,0,0,0,0,0,0,0,0,2.001,1.9973,2.0081,2.0053,2.0051,2.0108,2.0109,2.0109,2.0047,2.0044,2.0041,2.0038,2.0066,2.007,2.0074,2.0159,0,0,2.0086,2.0088,0,0,0,0,0,0,0,0,2.0008,2.0014,2.0057,2.0055,2.0053,2.0071,2.008,2.0126,2.0048,2.0049,2.004,2.0037,2.0071,2.0075,2.0086,2.016,2.0161,2.0086,2.0089,2.009,2.0091,0,0,0,0,0,0,0,2.0005,2.0013,2.0092,2.0058,2.0055,2.0038,2.0041,2.0088,2.0077,2.0048,2.0044,2.0048,2.007,2.0083,2.0087,2.0161,2.0086,2.009,2.0092,2.0094,2.0298,2.0301,0,0,0,0,0,0,2.0006,2.0011,2.0091,2.0092,2.0022,2.0043,2.0046,2.0068,2.0076,2.0074,2.005,2.0045,2.0078,2.0082,2.0087,2.0181,2.009,2.0094,2.0096,2.0295,2.0299,2.0302,0,0,0,0,0,0,2.0004,2.0014,2.009,2.005,2.0059,2.0048,2.0074,2.007,2.0083,2.0077,2.0075,2.0066,2.0075,2.0082,2.014,2.0181,2.0096,2.0099,2.0291,2.0296,2.03,2.0373,0,0,0,0,0,0,2.0001,2.0013,2.0047,2.0052,2.0061,2.0143,2.0077,2.0073,2.009,2.0083,2.0092,2.009,2.0074,2.0134,2.0144,2.0185,2.0102,2.0287,2.0293,2.0299,2.0367,2.0379,2.039,0,0,0,0,0,1.9997,2.0068,2.0049,2.0059,2.0102,2.0145,2.0151,2.013,2.0094,2.0126,2.0121,2.009,2.0176,2.0141,2.0151,2.0194,2.0285,2.0292,2.0298,2.0361,2.0377,2.039,0,0,0,0,0,0,2.0069,2.0068,2.0047,2.0121,2.0134,2.0135,2.0175,2.0149,2.0172,2.0164,2.0138,2.014,2.0202,2.0205,2.0165,2.0273,2.0224,2.0233,2.0268,2.0283,2.0295,2.0291,2.0106,0,0,0,0,0,2.0094,2.0129,2.0126,2.0192,2.0199,2.0186,2.0204,2.0187,2.0199,2.0204,2.0204,2.0216,2.0245,2.0265,2.0292,2.0368,2.0366,2.0403,2.0414,2.0424,2.0431,2.0465,2.0479,2.0325,2.0325,2.0325,0,0,2.0145,2.0148,2.0173,2.0206,2.0214,2.0249,2.0191,2.0232,2.0257,2.021,2.0262,2.0263,2.0275,2.034,2.0369,2.0344,2.0474,2.0433,2.0441,2.0442,2.0473,2.0488,2.0501,2.0329,2.0329,2.0328,0,0,2.0254,2.0263,2.0315,2.0323,2.0334,2.0324,2.0337,2.0341,2.0339,2.0392,2.0355,2.0384,2.0437,2.0445,2.0456,2.0563,2.0533,2.0573,2.0633,2.0667,2.0679,2.0689,2.0722,2.0734,2.0581,2.0581,2.0581,0,2.0315,2.0367,2.0345,2.0387,2.04,2.0359,2.0409,2.0418,2.0438,2.0448,2.042,2.0481,2.0487,2.055,2.0575,2.0588,2.0598,2.057,2.0679,2.0689,2.0699,2.0729,2.0742,2.0586,2.0585,2.0585,2.0584,0,2.0439,2.0476,2.0516,2.0534,2.0552,2.0599,2.0581,2.0603,2.0584,2.0576,2.0627,2.0632,2.0656,2.0671,2.0654,2.073,2.0714,2.0684,2.0633,2.0718,2.0746,2.0758,2.0592,2.059,2.0589,2.0588,0,0,2.0594,2.0596,2.0611,2.0615,2.0623,2.065,2.0693,2.0716,2.0732,2.0748,2.0779,2.0823,2.0793,2.0805,2.0789,2.0819,2.0895,2.0783,2.0783,2.0799,2.0973,2.0992,2.1006,2.0877,2.0879,2.0881,2.097,0,2.0697,2.0769,2.0748,2.082,2.0849,2.0809,2.0845,2.0853,2.0846,2.087,2.0863,2.0891,2.0853,2.0859,2.0888,2.088,2.0929,2.0874,2.0903,2.0904,2.0896,2.1022,2.1043,2.1127,2.0981,2.0983,2.0985,0,2.0827,2.0843,2.0917,2.0914,2.0926,2.0959,2.0975,2.1,2.1006,2.0999,2.1011,2.0986,2.1025,2.0977,2.1028,2.0991,2.1002,2.1,2.1002,2.1,2.0946,2.1018,2.1154,2.1164,2.1003,2.1002,2.1,0,2.0924,2.0966,2.1013,2.102,2.102,2.1043,2.1044,2.1047,2.106,2.1075,2.1082,2.1102,2.1112,2.1126,2.1107,2.1075,2.1158,2.111,2.115,2.115,2.1166,2.1164,2.1299,2.1182,2.1182,2.1181,2.1181,0,2.1038,2.1083,2.1056,2.1085,2.1133,2.1108,2.1156,2.1153,2.1155,2.1181,2.1149,2.1174,2.1149,2.1171,2.1156,2.1196,2.1203,2.1195,2.119,2.1195,2.1195,2.1199,2.119,2.1185,2.1184,2.1183,2.1183,0,2.1154,2.1138,2.1186,2.1181,2.118,2.1215,2.121,2.1235,2.1226,2.1258,2.1265,2.1249,2.1273,2.1255,2.128,2.127,2.1321,2.1311,2.1318,2.1313,2.1352,2.1346,2.149,2.1505,2.1382,2.1384,2.1385,0,2.1225,2.1258,2.1255,2.1269,2.1271,2.1296,2.1307,2.1284,2.1298,2.1305,2.1328,2.1349,2.1363,2.1402,2.1392,2.1409,2.1395,2.1444,2.1398,2.14,2.1389,2.1385,2.1386,2.1452,2.1454,2.1455,2.1456,0,2.135,2.134,2.1358,2.1373,2.1387,2.1398,2.1407,2.142,2.1396,2.1413,2.1435,2.1446,2.1469,2.1488,2.15,2.15,2.1472,2.1471,2.148,2.1483,2.1484,2.1478,2.1338,2.1467,2.1466,2.1465,2.1465,2.1464,2.1442,2.1467,2.1467,2.1487,2.149,2.1497,2.1519,2.1511,2.1529,2.1544,2.153,2.1555,2.1557,2.1571,2.1573,2.1592,2.1571,2.1586,2.1589,2.1591,2.1594,2.1485,2.1595,2.1595,2.1594,2.1594,2.1594,0,2.156,2.1558,2.1577,2.1587,2.1602,2.1576,2.1582,2.1596,2.1618,2.1622,2.1636,2.1659,2.1677,2.1668,2.1682,2.1698,2.1685,2.1702,2.1698,2.1697,2.1614,2.1602,2.1711,2.1711,2.1711,2.1711,2.1711,2.1711,2.1624,2.1662,2.1651,2.169,2.1687,2.171,2.1715,2.1721,2.1723,2.175,2.1763,2.1757,2.1754,2.1767,2.1781,2.1778,2.1782,2.1802,2.1794,2.1716,2.1704,2.1693,2.1681,2.1805,2.1805,2.1874,2.1875,2.1876]}]]